| time (UTC) | temp C | wind direction | speed KPH | gust KPH | rain 1hr cm | rain 24hr cm | rain mn cm | humidity % | barometer mb |
| 20260509091742 | 12 | 280 | 0.0 | 0.0 | 0.00 | 0.00 | 0.00 | 13 | 1013.9 |
| 20260509091241 | 12 | 280 | 0.0 | 0.0 | 0.00 | 0.00 | 0.00 | 13 | 1013.9 |
| 20260509090741 | 12 | 280 | 0.0 | 0.0 | 0.00 | 0.00 | 0.00 | 13 | 1013.9 |
| 20260509090242 | 12 | 280 | 0.0 | 0.0 | 0.00 | 0.00 | 0.00 | 13 | 1014.1 |
| 20260509085242 | 12 | 280 | 0.0 | 0.0 | 0.00 | 0.00 | 0.00 | 13 | 1014.1 |
| 20260509084741 | 12 | 280 | 0.0 | 0.0 | 0.00 | 0.00 | 0.00 | 13 | 1014.1 |
| 20260509084241 | 12 | 280 | 0.0 | 0.0 | 0.00 | 0.00 | 0.00 | 13 | 1014.1 |
| 20260509083742 | 12 | 280 | 0.0 | 0.0 | 0.00 | 0.00 | 0.00 | 13 | 1014.1 |
| 20260509083241 | 12 | 280 | 0.0 | 0.0 | 0.00 | 0.00 | 0.00 | 13 | 1014.1 |
| 20260509082742 | 12 | 280 | 0.0 | 0.0 | 0.00 | 0.00 | 0.00 | 13 | 1014.3 |
| 20260509082241 | 12 | 280 | 0.0 | 0.0 | 0.00 | 0.00 | 0.00 | 13 | 1014.4 |
| 20260509081741 | 12 | 280 | 0.0 | 0.0 | 0.00 | 0.00 | 0.00 | 13 | 1014.3 |
| 20260509081241 | 12 | 280 | 0.0 | 0.0 | 0.00 | 0.00 | 0.00 | 13 | 1014.4 |
| 20260509080741 | 12 | 280 | 0.0 | 1.6 | 0.00 | 0.00 | 0.00 | 13 | 1014.5 |
| 20260509080241 | 12 | 280 | 0.0 | 6.4 | 0.00 | 0.00 | 0.00 | 13 | 1014.5 |
| 20260509075741 | 12 | 280 | 0.0 | 6.4 | 0.00 | 0.00 | 0.00 | 13 | 1014.5 |
| 20260509075241 | 13 | 280 | 0.0 | 4.8 | 0.00 | 0.00 | 0.00 | 13 | 1014.6 |
| 20260509074742 | 13 | 280 | 4.8 | 4.8 | 0.00 | 0.00 | 0.00 | 13 | 1014.6 |
| 20260509074241 | 13 | 280 | 0.0 | 3.2 | 0.00 | 0.00 | 0.00 | 13 | 1014.7 |
| 20260509073741 | 13 | 280 | 0.0 | 4.8 | 0.00 | 0.00 | 0.00 | 13 | 1014.5 |
| 20260509073241 | 13 | 280 | 0.0 | 4.8 | 0.00 | 0.00 | 0.00 | 13 | 1014.5 |
| 20260509072741 | 13 | 280 | 0.0 | 0.0 | 0.00 | 0.00 | 0.00 | 13 | 1014.5 |
| 20260509072241 | 13 | 280 | 0.0 | 0.0 | 0.00 | 0.00 | 0.00 | 13 | 1014.6 |
| 20260509071741 | 13 | 280 | 0.0 | 0.0 | 0.00 | 0.00 | 0.00 | 13 | 1014.5 |
| 20260509071241 | 13 | 280 | 0.0 | 0.0 | 0.00 | 0.00 | 0.00 | 13 | 1014.6 |
| 20260509070741 | 13 | 280 | 0.0 | 0.0 | 0.00 | 0.00 | 0.00 | 12 | 1014.7 |
| 20260509070241 | 13 | 280 | 0.0 | 0.0 | 0.00 | 0.00 | 0.00 | 12 | 1014.8 |
| 20260509065742 | 13 | 280 | 0.0 | 0.0 | 0.00 | 0.00 | 0.00 | 12 | 1014.7 |
| 20260509065241 | 13 | 280 | 0.0 | 0.0 | 0.00 | 0.00 | 0.00 | 12 | 1014.7 |
| 20260509064741 | 13 | 280 | 0.0 | 0.0 | 0.00 | 0.00 | 0.00 | 12 | 1014.7 |
| 20260509064241 | 13 | 280 | 0.0 | 0.0 | 0.00 | 0.00 | 0.00 | 12 | 1014.7 |
| 20260509063741 | 13 | 280 | 0.0 | 0.0 | 0.00 | 0.00 | 0.00 | 12 | 1014.7 |
| 20260509063241 | 13 | 280 | 0.0 | 0.0 | 0.00 | 0.00 | 0.00 | 12 | 1014.7 |
| 20260509062741 | 13 | 280 | 0.0 | 0.0 | 0.00 | 0.00 | 0.00 | 12 | 1014.6 |
| 20260509062241 | 13 | 280 | 0.0 | 0.0 | 0.00 | 0.00 | 0.00 | 12 | 1014.6 |
| 20260509061241 | 13 | 280 | 0.0 | 0.0 | 0.00 | 0.00 | 0.00 | 12 | 1014.6 |
| 20260509060741 | 13 | 280 | 0.0 | 0.0 | 0.00 | 0.00 | 0.00 | 12 | 1014.7 |
| 20260509060241 | 13 | 280 | 0.0 | 0.0 | 0.00 | 0.00 | 0.00 | 12 | 1014.7 |
| 20260509055741 | 13 | 280 | 0.0 | 0.0 | 0.00 | 0.00 | 0.00 | 12 | 1014.6 |
| 20260509055241 | 13 | 280 | 0.0 | 3.2 | 0.00 | 0.00 | 0.00 | 12 | 1014.7 |
| 20260509054741 | 13 | 280 | 0.0 | 3.2 | 0.00 | 0.00 | 0.00 | 12 | 1014.8 |
| 20260509054241 | 12 | 280 | 0.0 | 3.2 | 0.00 | 0.00 | 0.00 | 12 | 1014.7 |
| 20260509053741 | 12 | 280 | 1.6 | 3.2 | 0.00 | 0.00 | 0.00 | 12 | 1014.7 |
| 20260509053241 | 12 | 280 | 3.2 | 3.2 | 0.00 | 0.00 | 0.00 | 12 | 1014.8 |
| 20260509052741 | 12 | 280 | 0.0 | 3.2 | 0.00 | 0.00 | 0.00 | 12 | 1014.7 |
| 20260509052241 | 12 | 280 | 1.6 | 4.8 | 0.00 | 0.00 | 0.00 | 12 | 1014.7 |
| 20260509051741 | 12 | 280 | 0.0 | 4.8 | 0.00 | 0.00 | 0.00 | 12 | 1014.7 |
| 20260509051241 | 12 | 280 | 0.0 | 4.8 | 0.00 | 0.00 | 0.00 | 12 | 1014.6 |
| 20260509050741 | 12 | 280 | 0.0 | 4.8 | 0.00 | 0.00 | 0.00 | 12 | 1014.5 |
| 20260509050241 | 12 | 280 | 4.8 | 4.8 | 0.00 | 0.00 | 0.00 | 12 | 1014.6 |
| 20260509045741 | 12 | 280 | 0.0 | 6.4 | 0.00 | 0.00 | 0.00 | 13 | 1014.5 |
| 20260509045240 | 12 | 280 | 0.0 | 6.4 | 0.00 | 0.00 | 0.00 | 13 | 1014.4 |
| 20260509044741 | 12 | 280 | 0.0 | 6.4 | 0.00 | 0.00 | 0.00 | 13 | 1014.4 |
| 20260509044241 | 12 | 280 | 4.8 | 6.4 | 0.00 | 0.00 | 0.00 | 13 | 1014.4 |
| 20260509043741 | 12 | 280 | 0.0 | 8.0 | 0.00 | 0.00 | 0.00 | 13 | 1014.2 |
| 20260509042740 | 12 | 280 | 6.4 | 8.0 | 0.00 | 0.00 | 0.00 | 14 | 1014.2 |
| 20260509042240 | 12 | 280 | 0.0 | 8.0 | 0.00 | 0.00 | 0.00 | 14 | 1014.1 |
| 20260509041741 | 12 | 281 | 1.6 | 6.4 | 0.00 | 0.00 | 0.00 | 14 | 1014.1 |
| 20260509041241 | 12 | 281 | 0.0 | 4.8 | 0.00 | 0.00 | 0.00 | 14 | 1013.9 |
| 20260509040241 | 12 | 281 | 0.0 | 6.4 | 0.00 | 0.00 | 0.00 | 15 | 1013.8 |
| 20260509035741 | 12 | 281 | 0.0 | 6.4 | 0.00 | 0.00 | 0.00 | 15 | 1013.7 |
| 20260509035240 | 12 | 280 | 0.0 | 4.8 | 0.00 | 0.00 | 0.00 | 16 | 1013.8 |
| 20260509034740 | 12 | 280 | 0.0 | 6.4 | 0.00 | 0.00 | 0.00 | 16 | 1013.7 |
| 20260509034240 | 13 | 280 | 0.0 | 9.7 | 0.00 | 0.00 | 0.00 | 17 | 1013.7 |
| 20260509033741 | 13 | 281 | 0.0 | 9.7 | 0.00 | 0.00 | 0.00 | 18 | 1013.6 |
| 20260509033241 | 13 | 280 | 0.0 | 6.4 | 0.00 | 0.00 | 0.00 | 19 | 1013.7 |
| 20260509032240 | 13 | 280 | 0.0 | 9.7 | 0.00 | 0.00 | 0.00 | 21 | 1013.3 |
| 20260509031741 | 13 | 281 | 0.0 | 9.7 | 0.00 | 0.00 | 0.00 | 22 | 1013.4 |
| 20260509031240 | 13 | 279 | 0.0 | 8.0 | 0.00 | 0.00 | 0.00 | 22 | 1013.3 |
| 20260509030740 | 13 | 275 | 1.6 | 8.0 | 0.00 | 0.00 | 0.00 | 24 | 1013.2 |
| 20260509030241 | 13 | 265 | 0.0 | 6.4 | 0.00 | 0.00 | 0.00 | 25 | 1013.2 |
| 20260509025740 | 13 | 269 | 0.0 | 6.4 | 0.00 | 0.00 | 0.00 | 26 | 1013.2 |
| 20260509025241 | 14 | 269 | 3.2 | 8.0 | 0.00 | 0.00 | 0.00 | 27 | 1013.2 |
| 20260509024740 | 14 | 315 | 3.2 | 8.0 | 0.00 | 0.00 | 0.00 | 28 | 1013.0 |
| 20260509024241 | 15 | 276 | 0.0 | 8.0 | 0.00 | 0.00 | 0.00 | 30 | 1012.9 |
| 20260509023741 | 15 | 281 | 0.0 | 8.0 | 0.00 | 0.00 | 0.00 | 31 | 1012.9 |
| 20260509022740 | 15 | 286 | 0.0 | 11.3 | 0.00 | 0.00 | 0.00 | 34 | 1013.0 |
| 20260509022241 | 15 | 194 | 6.4 | 14.5 | 0.00 | 0.00 | 0.00 | 35 | 1012.9 |
| 20260509021741 | 16 | 242 | 0.0 | 14.5 | 0.00 | 0.00 | 0.00 | 36 | 1012.9 |
| 20260509021241 | 16 | 283 | 4.8 | 11.3 | 0.00 | 0.00 | 0.00 | 37 | 1012.9 |
| 20260509020741 | 16 | 210 | 9.7 | 11.3 | 0.00 | 0.00 | 0.00 | 38 | 1012.9 |
| 20260509020240 | 16 | 287 | 4.8 | 8.0 | 0.00 | 0.00 | 0.00 | 39 | 1012.9 |
| 20260509015741 | 17 | 277 | 6.4 | 8.0 | 0.00 | 0.00 | 0.00 | 40 | 1012.8 |
| 20260509013741 | 18 | 222 | 6.4 | 9.7 | 0.00 | 0.00 | 0.00 | 42 | 1013.0 |
| 20260509013240 | 18 | 323 | 6.4 | 9.7 | 0.00 | 0.00 | 0.00 | 42 | 1012.8 |
| 20260509012741 | 18 | 183 | 0.0 | 9.7 | 0.00 | 0.00 | 0.00 | 42 | 1012.7 |
| 20260509010741 | 19 | 260 | 0.0 | 20.9 | 0.00 | 0.00 | 0.00 | 43 | 1012.8 |
| 20260509010240 | 20 | 242 | 0.0 | 19.3 | 0.00 | 0.00 | 0.00 | 43 | 1012.8 |
| 20260509005740 | 20 | 272 | 1.6 | 16.1 | 0.00 | 0.00 | 0.00 | 43 | 1012.9 |
| 20260509004741 | 20 | 277 | 3.2 | 17.7 | 0.00 | 0.00 | 0.00 | 42 | 1012.9 |
| 20260509004240 | 21 | 284 | 3.2 | 16.1 | 0.00 | 0.00 | 0.00 | 42 | 1012.9 |
| 20260509003741 | 21 | 271 | 0.0 | 14.5 | 0.00 | 0.00 | 0.00 | 41 | 1012.9 |
| 20260509003240 | 21 | 301 | 3.2 | 16.1 | 0.00 | 0.00 | 0.00 | 41 | 1012.9 |
| 20260509002741 | 21 | 290 | 6.4 | 16.1 | 0.00 | 0.00 | 0.00 | 41 | 1013.0 |
| 20260509002240 | 21 | 261 | 0.0 | 17.7 | 0.00 | 0.00 | 0.00 | 41 | 1012.8 |
| 20260509001741 | 21 | 288 | 3.2 | 17.7 | 0.00 | 0.00 | 0.00 | 42 | 1012.9 |
| 20260509001241 | 21 | 188 | 0.0 | 17.7 | 0.00 | 0.00 | 0.00 | 41 | 1012.8 |
| 20260508235741 | 21 | 217 | 0.0 | 19.3 | 0.00 | 0.00 | 0.00 | 41 | 1013.0 |
| 20260508235241 | 21 | 290 | 1.6 | 19.3 | 0.00 | 0.00 | 0.00 | 41 | 1012.9 |
| 20260508234740 | 22 | 236 | 0.0 | 16.1 | 0.00 | 0.00 | 0.00 | 40 | 1012.9 |
| 20260508234240 | 22 | 271 | 0.0 | 11.3 | 0.00 | 0.00 | 0.00 | 40 | 1013.0 |
| 20260508233740 | 22 | 248 | 0.0 | 9.7 | 0.00 | 0.00 | 0.00 | 41 | 1013.0 |
| 20260508232740 | 21 | 331 | 4.8 | 16.1 | 0.00 | 0.00 | 0.00 | 41 | 1013.2 |
| 20260508231740 | 22 | 245 | 4.8 | 17.7 | 0.00 | 0.00 | 0.00 | 40 | 1013.3 |
| 20260508231240 | 22 | 306 | 11.3 | 16.1 | 0.00 | 0.00 | 0.00 | 40 | 1013.3 |
| 20260508230740 | 22 | 281 | 1.6 | 19.3 | 0.00 | 0.00 | 0.00 | 40 | 1013.3 |
| 20260508230240 | 22 | 263 | 3.2 | 19.3 | 0.00 | 0.00 | 0.00 | 40 | 1013.3 |
| 20260508225741 | 22 | 279 | 6.4 | 17.7 | 0.00 | 0.00 | 0.00 | 40 | 1013.5 |
| 20260508225240 | 22 | 253 | 3.2 | 16.1 | 0.00 | 0.00 | 0.00 | 40 | 1013.5 |
| 20260508224740 | 22 | 281 | 0.0 | 16.1 | 0.00 | 0.00 | 0.00 | 40 | 1013.5 |
| 20260508224240 | 22 | 259 | 11.3 | 19.3 | 0.00 | 0.00 | 0.00 | 40 | 1013.6 |
| 20260508223740 | 22 | 181 | 6.4 | 19.3 | 0.00 | 0.00 | 0.00 | 40 | 1013.7 |
| 20260508223240 | 22 | 171 | 6.4 | 17.7 | 0.00 | 0.00 | 0.00 | 40 | 1013.8 |
| 20260508221240 | 22 | 242 | 11.3 | 19.3 | 0.00 | 0.00 | 0.00 | 39 | 1014.1 |
| 20260508220240 | 22 | 259 | 4.8 | 24.1 | 0.00 | 0.00 | 0.00 | 39 | 1014.1 |
| 20260508215740 | 22 | 306 | 3.2 | 19.3 | 0.00 | 0.00 | 0.00 | 39 | 1014.2 |
| 20260508214740 | 22 | 223 | 4.8 | 17.7 | 0.00 | 0.00 | 0.00 | 39 | 1014.2 |
| 20260508214240 | 22 | 148 | 0.0 | 11.3 | 0.00 | 0.00 | 0.00 | 39 | 1014.3 |
| 20260508213740 | 23 | 261 | 3.2 | 19.3 | 0.00 | 0.00 | 0.00 | 39 | 1014.3 |
| 20260508212740 | 23 | 275 | 1.6 | 17.7 | 0.00 | 0.00 | 0.00 | 38 | 1014.3 |
| 20260508212240 | 23 | 274 | 1.6 | 17.7 | 0.00 | 0.00 | 0.00 | 38 | 1014.3 |
| 20260508211740 | 23 | 226 | 11.3 | 16.1 | 0.00 | 0.00 | 0.00 | 38 | 1014.4 |
| 20260508211240 | 23 | 239 | 6.4 | 16.1 | 0.00 | 0.00 | 0.00 | 37 | 1014.5 |
| 20260508210740 | 23 | 263 | 11.3 | 16.1 | 0.00 | 0.00 | 0.00 | 37 | 1014.4 |
| 20260508210240 | 23 | 261 | 3.2 | 14.5 | 0.00 | 0.00 | 0.00 | 36 | 1014.5 |
| 20260508205739 | 23 | 299 | 6.4 | 16.1 | 0.00 | 0.00 | 0.00 | 36 | 1014.6 |
| 20260508203740 | 23 | 279 | 8.0 | 11.3 | 0.00 | 0.00 | 0.00 | 35 | 1014.7 |
| 20260508203240 | 23 | 258 | 4.8 | 19.3 | 0.00 | 0.00 | 0.00 | 35 | 1014.8 |
| 20260508202740 | 23 | 257 | 0.0 | 19.3 | 0.00 | 0.00 | 0.00 | 35 | 1014.8 |
| 20260508202239 | 23 | 309 | 4.8 | 11.3 | 0.00 | 0.00 | 0.00 | 34 | 1014.9 |
| 20260508201740 | 23 | 310 | 3.2 | 16.1 | 0.00 | 0.00 | 0.00 | 34 | 1014.9 |
| 20260508200740 | 23 | 300 | 0.0 | 14.5 | 0.00 | 0.00 | 0.00 | 34 | 1015.0 |
| 20260508200239 | 22 | 299 | 0.0 | 14.5 | 0.00 | 0.00 | 0.00 | 34 | 1014.9 |
| 20260508195739 | 22 | 256 | 0.0 | 14.5 | 0.00 | 0.00 | 0.00 | 33 | 1015.0 |
| 20260508194239 | 22 | 264 | 0.0 | 11.3 | 0.00 | 0.00 | 0.00 | 32 | 1015.2 |
| 20260508193740 | 22 | 225 | 1.6 | 9.7 | 0.00 | 0.00 | 0.00 | 31 | 1015.3 |
| 20260508192740 | 22 | 199 | 1.6 | 8.0 | 0.00 | 0.00 | 0.00 | 30 | 1015.3 |
| 20260508192240 | 21 | 215 | 0.0 | 14.5 | 0.00 | 0.00 | 0.00 | 30 | 1015.3 |
| 20260508191739 | 21 | 275 | 0.0 | 14.5 | 0.00 | 0.00 | 0.00 | 30 | 1015.5 |
| 20260508191239 | 21 | 44 | 0.0 | 9.7 | 0.00 | 0.00 | 0.00 | 30 | 1015.5 |
| 20260508190740 | 21 | 246 | 4.8 | 9.7 | 0.00 | 0.00 | 0.00 | 30 | 1015.4 |
| 20260508190240 | 20 | 236 | 0.0 | 9.7 | 0.00 | 0.00 | 0.00 | 30 | 1015.4 |
| 20260508185739 | 20 | 307 | 0.0 | 11.3 | 0.00 | 0.00 | 0.00 | 29 | 1015.5 |
| 20260508185239 | 20 | 304 | 0.0 | 11.3 | 0.00 | 0.00 | 0.00 | 29 | 1015.6 |
| 20260508184739 | 20 | 304 | 4.8 | 11.3 | 0.00 | 0.00 | 0.00 | 29 | 1015.6 |
| 20260508184239 | 20 | 306 | 4.8 | 11.3 | 0.00 | 0.00 | 0.00 | 28 | 1015.8 |
| 20260508183239 | 19 | 273 | 1.6 | 16.1 | 0.00 | 0.00 | 0.00 | 28 | 1015.9 |
| 20260508182739 | 19 | 245 | 1.6 | 11.3 | 0.00 | 0.00 | 0.00 | 27 | 1015.9 |
| 20260508182239 | 19 | 231 | 0.0 | 8.0 | 0.00 | 0.00 | 0.00 | 27 | 1016.0 |
| 20260508181239 | 18 | 300 | 4.8 | 14.5 | 0.00 | 0.00 | 0.00 | 27 | 1016.0 |
| 20260508175738 | 18 | 237 | 3.2 | 8.0 | 0.00 | 0.00 | 0.00 | 25 | 1016.1 |
| 20260508175238 | 18 | 291 | 1.6 | 14.5 | 0.00 | 0.00 | 0.00 | 25 | 1016.1 |
| 20260508174238 | 17 | 215 | 0.0 | 6.4 | 0.00 | 0.00 | 0.00 | 21 | 1016.0 |
| 20260508173238 | 17 | 213 | 0.0 | 8.0 | 0.00 | 0.00 | 0.00 | 19 | 1016.1 |
| 20260508172739 | 17 | 209 | 0.0 | 9.7 | 0.00 | 0.00 | 0.00 | 18 | 1016.1 |
| 20260508171738 | 16 | 271 | 0.0 | 8.0 | 0.00 | 0.00 | 0.00 | 14 | 1016.0 |
| 20260508171238 | 16 | 271 | 4.8 | 8.0 | 0.00 | 0.00 | 0.00 | 13 | 1016.1 |
| 20260508170738 | 15 | 271 | 0.0 | 3.2 | 0.00 | 0.00 | 0.00 | 12 | 1016.0 |
| 20260508170238 | 15 | 271 | 0.0 | 0.0 | 0.00 | 0.00 | 0.00 | 12 | 1016.0 |
| 20260508165737 | 15 | 280 | 0.0 | 0.0 | 0.00 | 0.00 | 0.00 | 12 | 1016.0 |
| 20260508165238 | 15 | 286 | 0.0 | 0.0 | 0.00 | 0.00 | 0.00 | 12 | 1016.0 |
| 20260508164738 | 14 | 286 | 0.0 | 0.0 | 0.00 | 0.00 | 0.00 | 12 | 1016.0 |
| 20260508164237 | 14 | 286 | 0.0 | 0.0 | 0.00 | 0.00 | 0.00 | 12 | 1016.1 |
| 20260508163738 | 13 | 286 | 0.0 | 0.0 | 0.00 | 0.00 | 0.00 | 12 | 1016.2 |
| 20260508162737 | 13 | 286 | 0.0 | 0.0 | 0.00 | 0.00 | 0.00 | 13 | 1016.2 |
| 20260508162237 | 13 | 286 | 0.0 | 0.0 | 0.00 | 0.00 | 0.00 | 13 | 1016.2 |
| 20260508161737 | 13 | 286 | 0.0 | 0.0 | 0.00 | 0.00 | 0.00 | 13 | 1016.2 |
| 20260508161238 | 13 | 286 | 0.0 | 0.0 | 0.00 | 0.00 | 0.00 | 13 | 1016.3 |
| 20260508160737 | 13 | 286 | 0.0 | 0.0 | 0.00 | 0.00 | 0.00 | 13 | 1016.3 |
| 20260508155237 | 13 | 286 | 0.0 | 4.8 | 0.00 | 0.00 | 0.00 | 13 | 1016.4 |
| 20260508154237 | 13 | 286 | 0.0 | 4.8 | 0.00 | 0.00 | 0.00 | 13 | 1016.3 |
| 20260508153737 | 13 | 286 | 0.0 | 0.0 | 0.00 | 0.00 | 0.00 | 14 | 1016.4 |
| 20260508153237 | 13 | 286 | 0.0 | 0.0 | 0.00 | 0.00 | 0.00 | 14 | 1016.4 |
| 20260508152237 | 12 | 286 | 0.0 | 0.0 | 0.00 | 0.00 | 0.00 | 14 | 1016.5 |
| 20260508151737 | 12 | 286 | 0.0 | 0.0 | 0.00 | 0.00 | 0.00 | 14 | 1016.4 |
| 20260508151236 | 12 | 286 | 0.0 | 0.0 | 0.00 | 0.00 | 0.00 | 14 | 1016.4 |
| 20260508150737 | 12 | 286 | 0.0 | 0.0 | 0.00 | 0.00 | 0.00 | 14 | 1016.3 |
| 20260508150237 | 12 | 286 | 0.0 | 0.0 | 0.00 | 0.00 | 0.00 | 14 | 1016.3 |
| 20260508145736 | 12 | 286 | 0.0 | 3.2 | 0.00 | 0.00 | 0.00 | 14 | 1016.3 |
| 20260508145236 | 12 | 286 | 0.0 | 3.2 | 0.00 | 0.00 | 0.00 | 14 | 1016.2 |
| 20260508144736 | 12 | 287 | 0.0 | 0.0 | 0.00 | 0.00 | 0.00 | 14 | 1016.3 |
| 20260508144236 | 12 | 287 | 0.0 | 0.0 | 0.00 | 0.00 | 0.00 | 14 | 1016.2 |
| 20260508143736 | 12 | 287 | 0.0 | 0.0 | 0.00 | 0.00 | 0.00 | 14 | 1016.3 |
| 20260508143236 | 12 | 287 | 0.0 | 0.0 | 0.00 | 0.00 | 0.00 | 14 | 1016.2 |
| 20260508142736 | 12 | 287 | 0.0 | 4.8 | 0.00 | 0.00 | 0.00 | 14 | 1016.3 |
| 20260508142236 | 12 | 287 | 0.0 | 4.8 | 0.00 | 0.00 | 0.00 | 14 | 1016.3 |
| 20260508141736 | 12 | 287 | 0.0 | 0.0 | 0.00 | 0.00 | 0.00 | 14 | 1016.3 |
| 20260508141236 | 12 | 287 | 0.0 | 0.0 | 0.00 | 0.00 | 0.00 | 14 | 1016.3 |
| 20260508140736 | 12 | 287 | 0.0 | 1.6 | 0.00 | 0.00 | 0.00 | 14 | 1016.3 |
| 20260508140236 | 12 | 287 | 0.0 | 1.6 | 0.00 | 0.00 | 0.00 | 14 | 1016.3 |
| 20260508135736 | 12 | 287 | 0.0 | 0.0 | 0.00 | 0.00 | 0.00 | 14 | 1016.2 |
| 20260508135235 | 12 | 287 | 0.0 | 0.0 | 0.00 | 0.00 | 0.00 | 14 | 1016.2 |
| 20260508134735 | 12 | 287 | 0.0 | 0.0 | 0.00 | 0.00 | 0.00 | 14 | 1016.1 |
| 20260508134235 | 12 | 287 | 0.0 | 0.0 | 0.00 | 0.00 | 0.00 | 14 | 1016.0 |
| 20260508133735 | 12 | 287 | 0.0 | 3.2 | 0.00 | 0.00 | 0.00 | 14 | 1016.0 |
| 20260508133236 | 12 | 287 | 0.0 | 4.8 | 0.00 | 0.00 | 0.00 | 14 | 1016.0 |
| 20260508132735 | 12 | 287 | 0.0 | 4.8 | 0.00 | 0.00 | 0.00 | 14 | 1015.9 |
| 20260508132235 | 12 | 287 | 4.8 | 4.8 | 0.00 | 0.00 | 0.00 | 14 | 1016.0 |
| 20260508131735 | 12 | 287 | 0.0 | 0.0 | 0.00 | 0.00 | 0.00 | 14 | 1016.0 |
| 20260508130235 | 12 | 287 | 0.0 | 0.0 | 0.00 | 0.00 | 0.00 | 14 | 1015.8 |
| 20260508125735 | 12 | 287 | 0.0 | 0.0 | 0.00 | 0.00 | 0.00 | 14 | 1015.9 |
| 20260508125235 | 12 | 287 | 0.0 | 0.0 | 0.00 | 0.00 | 0.00 | 14 | 1015.9 |
| 20260508124735 | 12 | 287 | 0.0 | 0.0 | 0.00 | 0.00 | 0.00 | 14 | 1015.9 |
| 20260508124235 | 12 | 287 | 0.0 | 0.0 | 0.00 | 0.00 | 0.00 | 14 | 1015.8 |
| 20260508123734 | 12 | 287 | 0.0 | 0.0 | 0.00 | 0.00 | 0.00 | 14 | 1015.8 |
| 20260508122734 | 12 | 287 | 0.0 | 0.0 | 0.00 | 0.00 | 0.00 | 14 | 1015.8 |
| 20260508122234 | 12 | 287 | 0.0 | 0.0 | 0.00 | 0.00 | 0.00 | 14 | 1015.8 |
| 20260508121735 | 12 | 287 | 0.0 | 0.0 | 0.00 | 0.00 | 0.00 | 14 | 1015.7 |
| 20260508121235 | 12 | 287 | 0.0 | 0.0 | 0.00 | 0.00 | 0.00 | 14 | 1015.8 |
| 20260508120734 | 12 | 287 | 0.0 | 0.0 | 0.00 | 0.00 | 0.00 | 14 | 1015.8 |
| 20260508120235 | 12 | 287 | 0.0 | 0.0 | 0.00 | 0.00 | 0.00 | 14 | 1015.7 |
| 20260508115734 | 12 | 287 | 0.0 | 0.0 | 0.00 | 0.00 | 0.00 | 14 | 1015.7 |
| 20260508115234 | 12 | 287 | 0.0 | 0.0 | 0.00 | 0.00 | 0.00 | 14 | 1015.7 |
| 20260508114734 | 12 | 287 | 0.0 | 0.0 | 0.00 | 0.00 | 0.00 | 14 | 1015.7 |
| 20260508113734 | 12 | 287 | 0.0 | 0.0 | 0.00 | 0.00 | 0.00 | 14 | 1015.7 |
| 20260508113235 | 12 | 287 | 0.0 | 0.0 | 0.00 | 0.00 | 0.00 | 14 | 1015.6 |
| 20260508112734 | 12 | 287 | 0.0 | 0.0 | 0.00 | 0.00 | 0.00 | 14 | 1015.7 |
| 20260508112234 | 12 | 287 | 0.0 | 0.0 | 0.00 | 0.00 | 0.00 | 14 | 1015.6 |
| 20260508111734 | 12 | 287 | 0.0 | 0.0 | 0.00 | 0.00 | 0.00 | 14 | 1015.6 |
| 20260508111234 | 12 | 287 | 0.0 | 0.0 | 0.00 | 0.00 | 0.00 | 14 | 1015.6 |
| 20260508110734 | 12 | 287 | 0.0 | 0.0 | 0.00 | 0.00 | 0.00 | 14 | 1015.6 |
| 20260508110235 | 12 | 287 | 0.0 | 0.0 | 0.00 | 0.00 | 0.00 | 14 | 1015.7 |
| 20260508105733 | 12 | 287 | 0.0 | 0.0 | 0.00 | 0.00 | 0.00 | 14 | 1015.9 |
| 20260508105234 | 12 | 287 | 0.0 | 0.0 | 0.00 | 0.00 | 0.00 | 14 | 1015.9 |
| 20260508104734 | 12 | 287 | 0.0 | 0.0 | 0.00 | 0.00 | 0.00 | 14 | 1015.9 |
| 20260508104234 | 12 | 287 | 0.0 | 0.0 | 0.00 | 0.00 | 0.00 | 14 | 1015.9 |
| 20260508103233 | 12 | 287 | 0.0 | 0.0 | 0.00 | 0.00 | 0.00 | 13 | 1015.9 |
| 20260508102733 | 12 | 287 | 0.0 | 0.0 | 0.00 | 0.00 | 0.00 | 13 | 1015.9 |
| 20260508101233 | 12 | 287 | 0.0 | 0.0 | 0.00 | 0.00 | 0.00 | 14 | 1016.0 |
| 20260508100733 | 12 | 287 | 0.0 | 0.0 | 0.00 | 0.00 | 0.00 | 14 | 1015.9 |
| 20260508100233 | 12 | 287 | 0.0 | 0.0 | 0.00 | 0.00 | 0.00 | 14 | 1015.9 |
| 20260508095733 | 12 | 287 | 0.0 | 0.0 | 0.00 | 0.00 | 0.00 | 14 | 1015.9 |
| 20260508094733 | 12 | 287 | 0.0 | 0.0 | 0.00 | 0.00 | 0.00 | 14 | 1015.9 |
| 20260508094233 | 12 | 287 | 0.0 | 0.0 | 0.00 | 0.00 | 0.00 | 14 | 1015.9 |
| 20260508093233 | 12 | 287 | 0.0 | 0.0 | 0.00 | 0.00 | 0.00 | 14 | 1015.9 |
| 20260508092733 | 12 | 287 | 0.0 | 0.0 | 0.00 | 0.00 | 0.00 | 14 | 1015.9 |